Flight Information

DEPARTURE
CASPER, WY
Elevation:
5344
Runways:
3/21 - 10165x150 - ASPH-G
8/26 - 8679x150 - ASPH-F
ATIS:
126.15
Clearance Delivery:
121.9
Ground:
121.9
Tower:
CASPER TOWER 118.3
DESTINATION
,
Elevation:
TPA:
1000 (est.)


6118.6 NM79° True-13° Var65° HDG

Flight Plan:
(click to file on line)

1. Type
2. Aircraft Identification
3. Aircraft Type / Special Equipment
4. True Airspeed
kts
5. Departure Airport
(ICAO code)
6. Arriving Airport
(ICAO code)
7. Cruising Altitude
ft
8. Alternate Airport
(ICAO code)
9. Route of Flight
10. Remarks


00:00:00 Departure ATIS: Destination ATIS:

Clearance Limit:
Route:
Altitude: Expect in minutes
Frequency:
Transponder: (7500 Hijack / 7600 Lost Comms / 7700 Emergency)


KCPR 280953Z AUTO 23008KT 10SM CLR 01/M03 A3040 RMK AO2 SLP288 T00061033
Time: 2020-09-28T09:53:00Z
1601290247
Winds: 230 @ 8 kts
Visibility: 10.0 sm
Clouds (AGL): CLR
Temperature: 0.6 C
Dew Point: -3.3 C
Pressure: 30.398623 in Hgbr


Notes:

Data extracted from FAA Digital Chart Supplement. Effective: 0901Z Thursday, Sep 10, 2020 to 0901Z Thursday, Nov 5, 2020
Current ATIS data is provided courtisy of PilotEdge.